Home   Weather   Sioux Falls   Past weeks

Flag for USA Past Weather in Sioux Falls, South Dakota, USA — Yesterday and Last 2 Weeks

Now
29 °F

Ice fog.


Feels Like: 24 °F
Forecast: 12 / 29 °F
Wind: 5 mph from Northwest

Location: Foss Field

Current Time: Jan 16, 2017 at 11:18:13 pm

Latest Report: Jan 16, 2017 at 10:56 pm


Visibility: 6 mi

Pressure: 30.04 "Hg

Humidity: 93%

Dew Point: 27 °F

Location of Sioux FallsLocation

Past Weather in Sioux Falls — Graph

°F

Sioux Falls Temperature Yesterday

Maximum temperature yesterday: 36 °F (at 2:56 pm)
Minimum temperature yesterday: 6 °F (at 2:56 am)
Average temperature yesterday: 20 °F

High & Low Weather Summary for the Past Weeks

 TemperatureHumidityPressure
High36 °F (Jan 15, 2:56 pm)100% (Jan 2, 4:01 am)30.79 "Hg (Jan 2, 4:01 am)
Low-6 °F (Jan 4, 7:56 am)53% (Jan 12, 3:56 pm)29.44 "Hg (Jan 10, 6:14 am)
Average13 °F79%30.22 "Hg
* Reported Jan 1 9:21 pm — Jan 16 9:56 pm, Sioux Falls, Weather by CustomWeather, © 2017

Note: Actual official high and low records may vary slightly from our data, if they occured in-between our weather recording intervals... More about our weather records

Advertising

Sioux Falls Weather History for the Previous 24 Hours

Scroll right to see more
 ConditionsComfort  
Time TempWeatherWind HumidityBarometerVisibility
9:56 pm
Mon, Jan 16
30 °FLow clouds.5 mph89%30.03 "Hg8 mi
9:23 pm31 °FMostly cloudy.8 mph85%29.97 "Hg8 mi
8:56 pm31 °FMostly cloudy.9 mph89%30.03 "Hg8 mi
7:56 pm31 °FOvercast.13 mph85%30.04 "Hg9 mi
7:25 pm31 °FOvercast.8 mph89%29.98 "Hg7 mi
7:06 pm31 °FLight freezing rain. Ice fog.8 mph92%29.99 "Hg6 mi
6:56 pm31 °FLight freezing rain. Ice fog.9 mph92%30.04 "Hg6 mi
5:56 pm31 °FLight freezing rain. Ice fog.8 mph92%30.05 "Hg4 mi
5:43 pm31 °FLight freezing rain. Overcast.8 mph92%29.99 "Hg3 mi
5:26 pm31 °FLight freezing rain. Ice fog.6 mph92%29.99 "Hg2 mi
4:56 pm31 °FLight freezing rain. Ice fog.No wind100%30.04 "Hg1 mi
4:32 pm31 °FLight freezing rain. Ice fog.5 mph96%29.98 "Hg2 mi
3:56 pm32 °FLight freezing rain. Mostly cloudy.5 mph85%30.03 "Hg8 mi
2:56 pm31 °FLight freezing rain. Ice fog.7 mph85%30.04 "Hg6 mi
2:01 pm31 °FLight freezing rain. Overcast.6 mph76%29.98 "Hg10 mi
12:56 pm30 °FOvercast.7 mph75%30.07 "Hg10 mi
11:56 am30 °FOvercast.6 mph75%30.10 "Hg10 mi
10:56 am27 °FOvercast.6 mph81%30.13 "Hg10 mi
9:56 am26 °FOvercast.6 mph81%30.13 "Hg10 mi
8:56 am24 °FOvercast.3 mph84%30.13 "Hg9 mi
8:16 am24 °FMostly cloudy.3 mph84%30.06 "Hg10 mi
7:56 am23 °FBroken clouds.3 mph85%30.12 "Hg10 mi
7:42 am23 °FPartly cloudy.3 mph88%30.06 "Hg10 mi
6:56 am25 °FOvercast.5 mph85%30.14 "Hg10 mi
5:56 am25 °FOvercast.6 mph81%30.14 "Hg10 mi
4:56 am24 °FMostly cloudy.No wind84%30.14 "Hg10 mi
3:56 am24 °FOvercast.3 mph81%30.16 "Hg10 mi
3:06 am22 °FPassing clouds.No wind82%30.12 "Hg10 mi
2:56 am21 °FPassing clouds.No wind85%30.17 "Hg10 mi
1:56 am21 °FClear.5 mph85%30.18 "Hg10 mi
12:56 am21 °FClear.3 mph85%30.18 "Hg10 mi
11:56 pm
Sun, Jan 15
23 °FOvercast.No wind81%30.20 "Hg10 mi
Weather by CustomWeather, © 2017

See weather overviewHow to use our weather pages